This demonstration page uses our WeatherBlox Daily Observations layout. Learn more.

Left ArrowRight Arrow

39.08367, -84.50855

Hourly Observations for April 7, 2019

Temp ( °F °C ) Dew Point ( °F °C ) Humidity (%) Winds ( mph kmh ) Pressure ( in mb ) Visibility ( mi km ) Precip ( " mm )
12:53 am 00:53 Clear 48 8.9 45 7.2 89 89 Calm 30.12 1020 9 14.48406 0 0
1:53 am 01:53 Clear 48 8.9 45 7.2 89 89 Calm 30.11 1020 9 14.48406 0 0
2:53 am 02:53 Clear with Mist and Fog 47 8.3 45 7.2 93 93 Calm 30.1 1019 6 9.65604 0 0
3:53 am 03:53 Clear 45 7.2 43 6.1 93 93 Calm 30.07 1018 8 12.87472 0 0
4:08 am 04:08 Clear with Mist and Fog 44 6.7 43 6.1 96 96 Calm 30.08 1019 1.75 2.816345 0 0
4:31 am 04:31 Clear with Mist and Fog 45 7.2 44 6.7 97 97 Calm 30.08 1019 3 4.82802 0 0
4:53 am 04:53 Clear 45 7.2 43 6.1 93 93 Calm 30.06 1018 8 12.87472 0 0
5:24 am 05:24 Clear with Mist and Fog 45 7.2 43 6.1 93 93 Calm 30.06 1018 1.75 2.816345 0 0
5:32 am 05:32 Clear with Mist and Fog 46 7.8 44 6.7 93 93 Calm 30.06 1018 2.5 4.02335 0 0
5:53 am 05:53 Clear with Mist and Fog 45 7.2 43 6.1 93 93 Calm 30.04 1017 5 8.0467 0 0
6:53 am 06:53 Clear 46 7.8 44 6.7 93 93 Calm 30.05 1018 10 16.0934 0 0
7:53 am 07:53 Sunny with Mist and Fog 47 8.3 45 7.2 93 93 Calm 30.06 1018 6 9.65604 0 0
8:53 am 08:53 Sunny 49 9.4 46 7.8 90 90 Calm 30.04 1017 7 11.26538 0 0
9:53 am 09:53 Partly Cloudy 52 11.1 49 9.4 89 89 W 3 6 30.03 1017 9 14.48406 0 0.0254
10:53 am 10:53 Cloudy with Light Rain 57 13.9 53 11.7 87 87 Calm 30.02 1017 10 16.0934 0.01 0.254
11:53 am 11:53 Cloudy 61 16.1 56 13.3 84 84 S 5 7 30.01 1016 10 16.0934 0 0.0254
12:53 pm 12:53 Mostly Sunny 70 21.1 61 16.1 73 73 SSW 9 15 29.98 1015 10 16.0934 0 0
1:53 pm 13:53 Mostly Cloudy 70 21.1 60 15.6 71 71 SSW 16 26 29.96 1015 10 16.0934 0 0
2:53 pm 14:53 Cloudy 70 21.1 59 15 68 68 SW 22 35 29.95 1014 10 16.0934 0 0
3:53 pm 15:53 Mostly Cloudy 69 20.6 61 16.1 76 76 SSW 17 28 29.94 1014 10 16.0934 0 0
4:53 pm 16:53 Cloudy 68 20 61 16.1 78 78 SSW 16 26 29.92 1013 10 16.0934 0 0
5:53 pm 17:53 Cloudy 67 19.4 61 16.1 81 81 SSW 17 28 29.93 1014 10 16.0934 0 0
6:53 pm 18:53 Cloudy with Light Rain 65 18.3 62 16.7 90 90 SSW 9 15 29.93 1014 4 6.43736 0 0.0254
7:53 pm 19:53 Cloudy 65 18.3 61 16.1 87 87 S 9 15 29.91 1013 10 16.0934 0 0.0254
8:53 pm 20:53 Partly Cloudy 64 17.8 60 15.6 87 87 SSW 8 13 29.9 1012 8 12.87472 0 0
9:53 pm 21:53 Mostly Clear 61 16.1 58 14.4 90 90 S 8 13 29.95 1014 10 16.0934 0 0
10:53 pm 22:53 Mostly Cloudy 62 16.7 58 14.4 86 86 SW 5 7 29.93 1014 10 16.0934 0 0
11:53 pm 23:53 Cloudy 63 17.2 58 14.4 84 84 S 9 15 29.93 1014 10 16.0934 0 0

Powered by AerisWeather